COSMOS 2251 DEB, 34969

Orbit data source: Space-Track

COSMOS 2251 DEB, 34969 is space debris in LEO originally from a launch on Wed, 16 Jun 1993 UTC launched from the Plesetsk Missile And Space Complex (PKMTR). The debris from Iridium 33, an American commercial communications satellite, has been tracked extensively since its accidental collision with the defunct Russian satellite Cosmos 2251 in 2009. This event, occurring at high speed in low Earth orbit (LEO), generated thousands of pieces of space debris, significantly increasing the risk of further collisions. The Iridium 33 debris cloud has impacted space traffic management and orbital debris mitigation strategies, making it a subject of ongoing study in space situational awareness.

Loading next visibility...
Identifier
34969, 1993-036AEY
Orbit
LEO
Country
Flag of CISCIS
Related business
Manufacturer
Unknown
Mission
Spacecraft
Bus & Motor
Unknown
Mass
Unknown
Launch date (UTC)
1993-06-16 (33 years ago)
Launch vehicle
Unknown
Launch site
Plesetsk Missile And Space Complex (PKMTR)
Object type
Payload
Rocket body
Debris
Shape & HBR
Unknown shape, 0.1 m
Radar Cross Section
Small (<0.1 m²)

Expand to show TLE details & history
Last TLE update: 2 days ago

TLE from 2 days ago
0 COSMOS 2251 DEB
1 34969U 93036AEY 26236.51928667  .00000400  00000-0  15205-3 0  9995
2 34969  74.0122 277.4207 0075029 348.0272  11.9092 14.32623653687858
Epoch: 2026-08-24T12:27Z
TLE epoch observation values (Epoch: 2026-08-24T12:27:46.368Z)
Latitude
0.00003°
Longitude
117.67768°
Altitude
733.016 km
Speed
7.516 km/s
True Right ascension
18h 29m 40s
True Declination
0° 00' 00"
Sunlit
Object was in full shadow at epoch
Visualization orbit readout
Latitude
Unknown
Longitude
Unknown
Altitude
Unknown
Speed
Unknown
Apparent Right ascension
Unknown
Apparent Declination
Unknown
Sunlit
N/A
Visualization observer readout
Local Sidereal Time
23:42:54
Azimuth
Unknown
Elevation
Unknown
Doppler factor
Unknown
Orbital elements
Apogee altitude
834.315 km
Perigee altitude
726.893 km
Semi-major axis
7,158.741 km
Eccentricity
0.0075
Inclination
74.0122°
RAAN
277.4207°
Arg. of periapsis
348.0272°
True anomaly
12.08827°
Mean anomaly
11.9092°
Eccentric anomaly
11.99857°
Mean motion
3.58334 °/min
Orbital period
100.46 mins
BSTAR
0.00015205
Loading maneuver chart data...
Computing Atmospheric mass density...
Loading historical data...
Loading historical data...
Loading historical data...
Loading historical data...
Loading historical data...
Loading historical data...
Loading historical data...

Documentation

Showing up to 5 results
|